Flag for Austria Weather past 2 weeks in Murau, Styria, Austria

Now
57 °F

Passing clouds.


Feels Like: 56 °F
Forecast: 34 / 68 °F
Wind: 6 mph from Southeast

Location: Zeltweg

Current Time: May 28, 2015 at 11:08:30 AM

Latest Report: May 28, 2015 at 10:20 AM


Visibility: 31 mi

Pressure: 30.09 "Hg

Humidity: 41%

Dew point: 34 °F

Location of MurauLocation

Historic Weather in Murau — Graph

°F

Murau temperature yesterday

Maximum temperature yesterday: 52 °F (at 5:50 AM)
Minimum temperature yesterday: 46 °F (at 10:50 PM)
Average temperature yesterday: 51 °F

Past Weeks' High & Low Weather Summary

 TemperatureHumidityPressure
High81 °F (May 13, 2:20 PM)100% (May 13, 10:50 PM)30.24 "Hg (May 13, 10:50 PM)
Low37 °F (May 28, 5:50 AM)24% (May 13, 2:20 PM)29.77 "Hg (May 19, 5:20 PM)
Average56 °F69%29.99 "Hg
* Reported May 13 9:20 AM — May 28 9:50 AM, Murau, Weather by CustomWeather, © 2015

Note: Actual official high and low records may vary slightly from our data, if they occured in-between our weather recording intervals... More about our weather records

Advertising

Murau weather history for previous 24 hours

 ConditionsComfort  
Time TempWeatherWind HumidityBarometerVisibility
9:50 AM
Thu, May 28
54 °FPassing clouds.5 mph47%30.09 "Hg31 mi
9:20 AM52 °FPassing clouds.2 mph58%30.09 "Hg25 mi
8:50 AM48 °FPassing clouds.2 mph62%30.12 "Hg25 mi
8:20 AM46 °FPassing clouds.2 mph66%30.12 "Hg25 mi
7:50 AM45 °FPassing clouds.1 mph71%30.12 "Hg25 mi
7:20 AM43 °FPassing clouds.2 mph76%30.09 "Hg25 mi
6:50 AM41 °FPassing clouds.2 mph87%30.12 "Hg19 mi
5:50 AM37 °FPassing clouds.2 mph100%30.09 "Hg19 mi
4:50 AM39 °FPassing clouds.2 mph93%30.09 "Hg19 mi
10:50 PM
Wed, May 27
46 °FPassing clouds.5 mph71%30.12 "Hg19 mi
9:50 PM48 °FPartly cloudy.2 mph62%30.12 "Hg19 mi
8:50 PM48 °FPartly sunny.2 mph62%30.09 "Hg19 mi
7:50 PM50 °FPartly sunny.6 mph54%30.09 "Hg19 mi
6:50 PM50 °FPartly sunny.9 mph50%30.09 "Hg19 mi
5:50 PM52 °FBroken clouds.2 mph44%30.09 "Hg19 mi
4:50 PM52 °FPartly sunny.6 mph50%30.09 "Hg19 mi
4:20 PM52 °FPartly sunny.10 mph47%30.09 "Hg19 mi
3:50 PM52 °FPartly sunny.13 mph50%30.09 "Hg19 mi
3:20 PM50 °FPartly sunny.12 mph54%30.09 "Hg19 mi
2:50 PM52 °FPartly sunny.14 mph50%30.09 "Hg19 mi
2:20 PM52 °FPartly sunny.5 mph47%30.09 "Hg19 mi
1:50 PM52 °FPartly sunny.5 mph44%30.09 "Hg19 mi
1:20 PM52 °FSprinkles. Broken clouds.9 mph41%30.09 "Hg19 mi
12:50 PM52 °FPartly sunny.7 mph41%30.09 "Hg19 mi
12:20 PM52 °FBroken clouds.14 mph44%30.09 "Hg19 mi
11:50 AM52 °FPartly sunny.9 mph44%30.09 "Hg19 mi
11:20 AM50 °FSprinkles. Partly sunny.8 mph50%30.09 "Hg19 mi
Weather by CustomWeather, © 2015

See weather overviewHow to use our weather pages